Location: Palomar Mountain Lodge
(33.3110°N, 116.8495°W)
Time: 18:52:32
(UTC-07:00)

Centaur AC-125 - Pass Details

Date: 14 June 2018
Orbit: 330 x 24447 km, 26.7° (Epoch: 17 June)

Event Time Altitude Azimuth Distance (km) Brightness Sun altitude
Rises 20:54:28 0° 233° (SW) 4,368 7.1 -10.7°
Reaches altitude 10° 20:59:58 10° 203° (SSW) 1,894 4.9 -11.6°
Maximum altitude 21:01:23 12° 179° (S) 1,492 4.2 -11.8°
Enters shadow 21:01:45 12° 171° (S) 1,439 4.0 -11.9°
